Flag for U.S.A. Weather past 2 weeks in Beaumont, Texas, U.S.A.

Now
80 °F

Clear.


Feels Like: 85 °F
Forecast: 76 / 95 °F
Wind: N/A

Location: Jefferson County Airport

Current Time: Jul 27, 2015 at 10:44:05 PM

Latest Report: Jul 27, 2015 at 9:53 PM


Visibility: 10 mi

Pressure: 29.93 "Hg

Humidity: 87%

Dew point: 76 °F

Location of BeaumontLocation

Historic Weather in Beaumont — Graph

°F

Beaumont temperature yesterday

Maximum temperature yesterday: 97 °F (at 3:53 PM)
Minimum temperature yesterday: 78 °F (at 4:53 AM)
Average temperature yesterday: 86 °F

Past Weeks' High & Low Weather Summary

 TemperatureHumidityPressure
High97 °F (Jul 25, 2:53 PM)100% (Jul 15, 5:53 AM)30.07 "Hg (Jul 15, 5:53 AM)
Low72 °F (Jul 15, 6:53 AM)46% (Jul 25, 2:53 PM)29.85 "Hg (Jul 14, 7:53 PM)
Average84 °F77%29.95 "Hg
* Reported Jul 12 8:53 PM — Jul 27 8:53 PM, Beaumont, Weather by CustomWeather, © 2015

Note: Actual official high and low records may vary slightly from our data, if they occured in-between our weather recording intervals... More about our weather records

Advertising

Beaumont weather history for previous 24 hours

 ConditionsComfort  
Time TempWeatherWind HumidityBarometerVisibility
8:53 PM
Mon, Jul 27
82 °FSunny.6 mph82%29.91 "Hg10 mi
7:53 PM85 °FSunny.8 mph70%29.90 "Hg10 mi
6:53 PM89 °FSunny.13 mph59%29.89 "Hg10 mi
5:53 PM92 °FPassing clouds.6 mph58%29.90 "Hg10 mi
4:53 PM84 °FPartly sunny.6 mph70%29.91 "Hg10 mi
3:53 PM91 °FThundershowers. Mostly cloudy.No wind60%29.92 "Hg10 mi
2:53 PM93 °FBroken clouds.8 mph56%29.92 "Hg10 mi
1:53 PM95 °FScattered clouds.5 mph56%29.94 "Hg10 mi
12:53 PM91 °FScattered clouds.No wind61%29.96 "Hg10 mi
11:53 AM89 °FBroken clouds.No wind65%29.97 "Hg10 mi
10:53 AM88 °FBroken clouds.No wind70%29.98 "Hg10 mi
9:53 AM88 °FPassing clouds.7 mph73%29.97 "Hg10 mi
8:53 AM86 °FScattered clouds.6 mph80%29.97 "Hg10 mi
7:53 AM83 °FPassing clouds.3 mph91%29.95 "Hg10 mi
6:53 AM79 °FFog.3 mph94%29.94 "Hg6 mi
5:53 AM78 °FClear.No wind96%29.92 "Hg7 mi
4:56 AM78 °FFog.No wind96%29.91 "Hg3 mi
3:53 AM78 °FClear.No wind96%29.88 "Hg10 mi
2:53 AM79 °FPassing clouds.5 mph94%29.88 "Hg10 mi
1:53 AM80 °FClear.No wind94%29.89 "Hg10 mi
12:53 AM81 °FClear.5 mph91%29.90 "Hg10 mi
11:53 PM
Sun, Jul 26
81 °FClear.5 mph91%29.90 "Hg10 mi
10:53 PM82 °FClear.3 mph88%29.91 "Hg10 mi
Weather by CustomWeather, © 2015

See weather overviewHow to use our weather pages